Location: Unspecified
(42.3650°N, 71.1030°W)
Time: 15:05:57
(UTC+00:00)

CSL-04 Rocket - Pass Details

Date: 02 March 2024
Orbit: 805 x 859 km, 98.8° (Epoch: 19 April)

Event Time Altitude Azimuth Distance (km) Brightness Sun altitude
Exits shadow 23:45:18 17° 115° (ESE) 2,001 5.1 -13.6°
Maximum altitude 23:48:32 30° 65° (ENE) 1,466 4.5 -14.2°
Drops below altitude 10° 23:53:15 10° 6° (N) 2,481 6.1 -15.0°
Sets 23:55:53 0° 356° (N) 3,428 7.0 -15.5°
